Luverne, MN

7:19 AM CDT on August 21, 2017 (GMT -0500)
Luverne

Weather History for KLYV - January, 2013

Change the Weather History Date:

Monday, January 14, 2013

  Actual Average (KPQN) Record (KPQN)
Temperature  
Mean Temperature 12 °F -  
Max Temperature 21 °F 21 °F 41 °F (2000)
Min Temperature 3 °F 6 °F -16 °F (2005)
Degree Days  
Heating Degree Days 53    
Moisture  
Dew Point 6 °F    
Average Humidity 80    
Maximum Humidity 86    
Minimum Humidity 68    
Precipitation  
Precipitation 0.00 in - - ()
Sea Level Pressure  
Sea Level Pressure 30.29 in    
Wind  
Wind Speed 3 mph (SW)    
Max Wind Speed 12 mph    
Max Gust Speed -    
Visibility 10 miles    
Events Snow    
Averages and records for this station are not official NWS values.
T = Trace of Precipitation, MM = Missing Value Source: NWS Daily Summary

Daily Weather History Graph

Daily Weather History Graph

Search for Another Location

Airport or City:

Trip Planner

Search our weather history database for the weather conditions in past years. The results will help you decide how hot, cold, wet, or windy it might be!

Date:

Astronomy

Jan. 14, 2013 Rise Set
Actual Time 7:55 AM CST 5:13 PM CST
Civil Twilight 7:23 AM CST 5:44 PM CST
Nautical Twilight 6:48 AM CST 6:20 PM CST
Astronomical Twilight 6:13 AM CST 6:54 PM CST
Moon 9:22 AM CST (1/14) 9:08 PM CST (1/14)
Length of Visible Light 10h 21m
Length of Day
9h 17m
Waxing Crescent, 11% of the Moon is Illuminated
Jan 14
Waxing Crescent
Jan 18
First Quarter
Jan 26
Full
Feb 3
Last Quarter
Feb 10
New

Hourly Weather History & Observations

Time (CST) Temp. Windchill Dew Point Humidity Pressure Visibility Wind Dir Wind Speed Gust Speed Precip Events Conditions
12:15 AM 5.0 °F -2.1 °F 1.4 °F 85% 30.25 in 10.0 mi NW 3.5 mph - N/A   Clear
12:36 AM 3.2 °F - -0.4 °F 85% 30.24 in 10.0 mi Calm Calm - N/A   Clear
12:56 AM 3.2 °F - -0.4 °F 85% 30.25 in 10.0 mi Calm Calm - N/A   Clear
1:15 AM 3.2 °F - -0.4 °F 85% 30.24 in 10.0 mi Calm Calm - N/A   Scattered Clouds
1:36 AM 3.2 °F -7.8 °F -0.4 °F 85% 30.25 in 10.0 mi SSW 5.8 mph - N/A   Mostly Cloudy
1:56 AM 6.8 °F - 3.2 °F 85% 30.25 in 10.0 mi Calm Calm - N/A   Overcast
2:16 AM 8.6 °F - 3.2 °F 79% 30.26 in 10.0 mi Calm Calm - N/A   Overcast
2:36 AM 10.4 °F 2.2 °F 5.0 °F 79% 30.27 in 10.0 mi West 4.6 mph - N/A Snow Light Snow
2:55 AM 10.4 °F 2.2 °F 5.0 °F 79% 30.27 in 10.0 mi West 4.6 mph - N/A Snow Light Snow
3:35 AM 10.4 °F - 5.0 °F 79% 30.28 in 10.0 mi Calm Calm - N/A   Scattered Clouds
4:16 AM 8.6 °F 0.1 °F 3.2 °F 79% 30.28 in 10.0 mi WSW 4.6 mph - N/A   Clear
4:35 AM 5.0 °F - 1.4 °F 85% 30.29 in 10.0 mi Calm Calm - N/A   Clear
4:56 AM 5.0 °F - 1.4 °F 85% 30.29 in 10.0 mi Calm Calm - N/A   Clear
5:16 AM 5.0 °F - 1.4 °F 85% 30.29 in 10.0 mi Calm Calm - N/A   Clear
5:56 AM 5.0 °F - 1.4 °F 85% 30.30 in 7.0 mi Calm Calm - N/A   Clear
6:16 AM 5.0 °F -2.1 °F 1.4 °F 85% 30.31 in 10.0 mi NW 3.5 mph - N/A   Clear
6:35 AM 5.0 °F -2.1 °F 1.4 °F 85% 30.32 in 10.0 mi NW 3.5 mph - N/A   Clear
6:56 AM 3.2 °F - -0.4 °F 85% 30.33 in 7.0 mi Calm Calm - N/A   Clear
7:16 AM 3.2 °F - -0.4 °F 85% 30.34 in 10.0 mi Calm Calm - N/A   Clear
7:35 AM 3.2 °F - -2.2 °F 78% 30.34 in 10.0 mi Calm Calm - N/A   Clear
7:56 AM 3.2 °F -6.2 °F -0.4 °F 85% 30.35 in 10.0 mi West 4.6 mph - N/A   Scattered Clouds
8:16 AM 3.2 °F - -2.2 °F 78% 30.35 in 10.0 mi Calm Calm - N/A   Scattered Clouds
8:35 AM 3.2 °F - -0.4 °F 85% 30.36 in 10.0 mi Calm Calm - N/A   Clear
8:56 AM 3.2 °F - -0.4 °F 85% 30.37 in 7.0 mi Calm Calm - N/A   Clear
9:15 AM 5.0 °F - 1.4 °F 85% 30.38 in 10.0 mi Calm Calm - N/A   Scattered Clouds
9:36 AM 6.8 °F -0.1 °F 3.2 °F 85% 30.38 in 10.0 mi WNW 3.5 mph - N/A   Overcast
9:56 AM 8.6 °F 2.0 °F 3.2 °F 79% 30.38 in 10.0 mi WNW 3.5 mph - N/A   Scattered Clouds
10:15 AM 8.6 °F 2.0 °F 5.0 °F 85% 30.38 in 10.0 mi WNW 3.5 mph - N/A   Clear
10:36 AM 10.4 °F 4.0 °F 5.0 °F 79% 30.38 in 10.0 mi West 3.5 mph - N/A   Clear
10:55 AM 12.2 °F - 5.0 °F 73% 30.38 in 10.0 mi Calm Calm - N/A   Clear
11:16 AM 12.2 °F 6.1 °F 5.0 °F 73% 30.37 in 10.0 mi WNW 3.5 mph - N/A   Clear
11:36 AM 12.2 °F 4.3 °F 5.0 °F 73% 30.37 in 10.0 mi WSW 4.6 mph - N/A   Clear
11:55 AM 14.0 °F 6.5 °F 6.8 °F 73% 30.36 in 10.0 mi West 4.6 mph - N/A   Clear
12:16 PM 14.0 °F 6.5 °F 6.8 °F 73% 30.34 in 10.0 mi West 4.6 mph - N/A   Clear
12:36 PM 14.0 °F - 8.6 °F 79% 30.33 in 10.0 mi Calm Calm - N/A   Clear
12:55 PM 15.8 °F 10.2 °F 8.6 °F 73% 30.32 in 10.0 mi SSW 3.5 mph - N/A   Clear
1:16 PM 17.6 °F 10.7 °F 10.4 °F 73% 30.31 in 10.0 mi South 4.6 mph - N/A   Clear
1:36 PM 17.6 °F 10.7 °F 10.4 °F 73% 30.30 in 5.0 mi SSW 4.6 mph - N/A Snow Light Snow
1:55 PM 19.4 °F 12.8 °F 10.4 °F 68% 30.29 in 10.0 mi South 4.6 mph - N/A   Clear
2:16 PM 19.4 °F 11.5 °F 12.2 °F 74% 30.29 in 10.0 mi SSE 5.8 mph - N/A   Clear
2:35 PM 19.4 °F 14.3 °F 12.2 °F 74% 30.29 in 10.0 mi SSE 3.5 mph - N/A   Clear
2:56 PM 19.4 °F 11.5 °F 12.2 °F 74% 30.29 in 10.0 mi South 5.8 mph - N/A   Clear
3:16 PM 19.4 °F 10.4 °F 12.2 °F 74% 30.29 in 10.0 mi SSE 6.9 mph - N/A   Clear
3:35 PM 19.4 °F 10.4 °F 12.2 °F 74% 30.29 in 10.0 mi South 6.9 mph - N/A   Clear
4:16 PM 21.2 °F 11.7 °F 14.0 °F 74% 30.29 in 10.0 mi South 8.1 mph - N/A   Clear
4:35 PM 19.4 °F 9.5 °F 12.2 °F 74% 30.28 in 10.0 mi South 8.1 mph - N/A   Clear
5:16 PM 19.4 °F 8.6 °F 12.2 °F 74% 30.27 in 10.0 mi South 9.2 mph - N/A   Clear
5:35 PM 17.6 °F 5.0 °F 12.2 °F 79% 30.27 in 10.0 mi South 11.5 mph - N/A   Clear
5:56 PM 15.8 °F 4.2 °F 10.4 °F 79% 30.26 in 10.0 mi SSW 9.2 mph - N/A   Clear
6:16 PM 14.0 °F 2.9 °F 10.4 °F 86% 30.26 in 10.0 mi South 8.1 mph - N/A   Clear
6:35 PM 14.0 °F 1.2 °F 10.4 °F 86% 30.26 in 10.0 mi South 10.4 mph - N/A   Clear
6:56 PM 15.8 °F 5.1 °F 10.4 °F 79% 30.26 in 10.0 mi South 8.1 mph - N/A   Clear
7:16 PM 14.0 °F 3.9 °F 8.6 °F 79% 30.27 in 10.0 mi South 6.9 mph - N/A   Clear
7:35 PM 14.0 °F 3.9 °F 8.6 °F 79% 30.27 in 10.0 mi South 6.9 mph - N/A   Clear
7:56 PM 14.0 °F 3.9 °F 8.6 °F 79% 30.27 in 10.0 mi South 6.9 mph - N/A   Clear
8:16 PM 14.0 °F 2.9 °F 8.6 °F 79% 30.26 in 10.0 mi South 8.1 mph - N/A   Clear
8:35 PM 14.0 °F 2.9 °F 8.6 °F 79% 30.26 in 10.0 mi South 8.1 mph - N/A   Clear
8:56 PM 14.0 °F 1.2 °F 8.6 °F 79% 30.26 in 10.0 mi South 10.4 mph - N/A   Clear
9:16 PM 14.0 °F 1.2 °F 8.6 °F 79% 30.25 in 10.0 mi South 10.4 mph - N/A   Clear
9:35 PM 12.2 °F 1.7 °F 8.6 °F 85% 30.25 in 10.0 mi South 6.9 mph - N/A   Clear
9:56 PM 12.2 °F - 8.6 °F 85% 30.25 in 10.0 mi Calm Calm - N/A   Clear
10:15 PM 12.2 °F - 6.8 °F 79% 30.25 in 10.0 mi Calm Calm - N/A   Clear
10:36 PM 12.2 °F 4.3 °F 6.8 °F 79% 30.24 in 10.0 mi South 4.6 mph - N/A   Clear
10:56 PM 10.4 °F 2.2 °F 6.8 °F 85% 30.24 in 10.0 mi SSW 4.6 mph - N/A   Clear
11:15 PM 12.2 °F 1.7 °F 8.6 °F 85% 30.24 in 10.0 mi SSW 6.9 mph - N/A   Clear
11:36 PM 14.0 °F 2.0 °F 8.6 °F 79% 30.24 in 10.0 mi SW 9.2 mph - N/A   Clear
11:55 PM 14.0 °F 1.2 °F 8.6 °F 79% 30.24 in 10.0 mi SW 10.4 mph - N/A   Clear